When you browse on this site, cookies collect data to enhance your experience and personalize the content and advertising you see.
Visit our Privacy Policy to learn more. By continuing to use the site, you agree to this use of cookies and data.
  • în România
  • Lista ţărilor
  • Pe 7 zile
  • Temperatura apei
  • Hartă satelitară
  • Meteo pe hartă
  • Widget-uri
  • user-avatar
    Intrare

    Meteo pe oră la Gorakhpur

    Astăzi, 16 Iulie, Marţi

    Timp Temperatura Precipitaţii Vânt Presiune Umiditate
    00:00 +31°C° 0.8 mm 2 m/s 742 mmHg 75%
    01:00 +30°C° 1.1 mm 1 m/s 742 mmHg 77%
    02:00 +30°C° 1.1 mm 1 m/s 741 mmHg 78%
    03:00 +28°C° 1.1 mm 0 m/s 741 mmHg 80%
    04:00 +30°C° 0.6 mm 1 m/s 741 mmHg 80%
    05:00 +30°C° 0.6 mm 1 m/s 741 mmHg 80%
    06:00 +30°C° 0.6 mm 1 m/s 741 mmHg 80%
    07:00 +30°C° 0 mm 1 m/s 742 mmHg 77%
    08:00 +31°C° 0 mm 1 m/s 743 mmHg 74%
    09:00 +32°C° 0 mm 1 m/s 743 mmHg 71%
    10:00 +33°C° 0 mm 1 m/s 743 mmHg 67%
    11:00 +34°C° 0 mm 1 m/s 744 mmHg 62%
    12:00 +35°C° 0 mm 1 m/s 744 mmHg 58%
    13:00 +37°C° 0.1 mm 2 m/s 743 mmHg 55%
    14:00 +37°C° 0.1 mm 2 m/s 743 mmHg 53%
    15:00 +38°C° 0.1 mm 2 m/s 742 mmHg 50%
    16:00 +37°C° 0.1 mm 2 m/s 742 mmHg 53%
    17:00 +37°C° 0.1 mm 3 m/s 742 mmHg 55%
    18:00 +36°C° 0.1 mm 3 m/s 741 mmHg 58%
    19:00 +35°C° 0 mm 2 m/s 742 mmHg 61%
    20:00 +35°C° 0 mm 2 m/s 742 mmHg 65%
    21:00 +34°C° 0 mm 2 m/s 742 mmHg 69%
    22:00 +32°C° 0 mm 2 m/s 742 mmHg 71%
    23:00 +32°C° 0 mm 2 m/s 742 mmHg 72%

    Mâine, 17 Iulie, Miercuri

    Timp Temperatura Precipitaţii Vânt Presiune Umiditate
    00:00 +31°C° 0 mm 3 m/s 742 mmHg 74%
    01:00 +31°C° 0.2 mm 2 m/s 742 mmHg 76%
    02:00 +30°C° 0.2 mm 2 m/s 742 mmHg 77%
    03:00 +30°C° 0.2 mm 1 m/s 742 mmHg 79%
    04:00 +29°C° 0.2 mm 1 m/s 742 mmHg 79%
    05:00 +29°C° 0.2 mm 1 m/s 742 mmHg 79%
    06:00 +29°C° 0.2 mm 1 m/s 742 mmHg 79%
    07:00 +30°C° 0 mm 1 m/s 742 mmHg 74%
    08:00 +31°C° 0 mm 1 m/s 743 mmHg 70%
    09:00 +33°C° 0 mm 1 m/s 743 mmHg 65%
    10:00 +34°C° 0 mm 1 m/s 743 mmHg 61%
    11:00 +35°C° 0 mm 1 m/s 743 mmHg 56%
    12:00 +37°C° 0 mm 2 m/s 743 mmHg 52%
    13:00 +38°C° 0 mm 2 m/s 742 mmHg 49%
    14:00 +38°C° 0 mm 2 m/s 742 mmHg 47%
    15:00 +39°C° 0 mm 2 m/s 741 mmHg 44%
    16:00 +39°C° 0 mm 2 m/s 741 mmHg 46%
    17:00 +39°C° 0 mm 2 m/s 741 mmHg 47%
    18:00 +39°C° 0 mm 2 m/s 741 mmHg 48%
    19:00 +37°C° 0 mm 1 m/s 741 mmHg 51%
    20:00 +36°C° 0 mm 1 m/s 741 mmHg 54%
    21:00 +33°C° 0 mm 0 m/s 741 mmHg 57%
    22:00 +33°C° 0 mm 1 m/s 741 mmHg 62%
    23:00 +33°C° 0 mm 1 m/s 742 mmHg 63%

    Poimâine, 18 Iulie, Joi

    Timp Temperatura Precipitaţii Vânt Presiune Umiditate
    00:00 +33°C° 0 mm 1 m/s 742 mmHg 64%
    01:00 +31°C° 0 mm 0 m/s 741 mmHg 65%
    02:00 +30°C° 0 mm 0 m/s 741 mmHg 66%
    03:00 +30°C° 0 mm 0 m/s 741 mmHg 68%
    04:00 +30°C° 0 mm 0 m/s 741 mmHg 69%
    05:00 +31°C° 0 mm 1 m/s 741 mmHg 71%
    06:00 +31°C° 0 mm 1 m/s 741 mmHg 72%
    07:00 +32°C° 0 mm 1 m/s 741 mmHg 68%
    08:00 +34°C° 0 mm 1 m/s 741 mmHg 63%
    09:00 +35°C° 0 mm 1 m/s 742 mmHg 58%
    10:00 +36°C° 0 mm 1 m/s 742 mmHg 54%
    11:00 +37°C° 0 mm 1 m/s 742 mmHg 49%
    12:00 +40°C° 0 mm 1 m/s 742 mmHg 45%
    13:00 +40°C° 0 mm 1 m/s 741 mmHg 44%
    14:00 +40°C° 0 mm 1 m/s 741 mmHg 43%
    15:00 +40°C° 0 mm 1 m/s 740 mmHg 41%
    16:00 +40°C° 0 mm 1 m/s 740 mmHg 44%
    17:00 +39°C° 0 mm 1 m/s 740 mmHg 46%
    18:00 +39°C° 0 mm 2 m/s 740 mmHg 48%
    19:00 +37°C° 0 mm 1 m/s 740 mmHg 51%
    20:00 +36°C° 0 mm 1 m/s 740 mmHg 53%
    21:00 +35°C° 0 mm 1 m/s 740 mmHg 56%
    22:00 +35°C° 0 mm 1 m/s 740 mmHg 57%
    23:00 +36°C° 0 mm 2 m/s 741 mmHg 59%

    19 Iulie, Vineri

    Timp Temperatura Precipitaţii Vânt Presiune Umiditate
    00:00 +35°C° 0 mm 2 m/s 741 mmHg 60%
    01:00 +35°C° 0 mm 2 m/s 741 mmHg 62%
    02:00 +33°C° 0 mm 1 m/s 741 mmHg 64%
    03:00 +33°C° 0 mm 1 m/s 740 mmHg 67%
    04:00 +33°C° 0.1 mm 1 m/s 741 mmHg 70%
    05:00 +32°C° 0.1 mm 2 m/s 741 mmHg 73%
    06:00 +32°C° 0.1 mm 2 m/s 741 mmHg 76%
    07:00 +34°C° 0.5 mm 2 m/s 742 mmHg 72%
    08:00 +35°C° 0.5 mm 3 m/s 742 mmHg 67%
    09:00 +36°C° 0.5 mm 3 m/s 743 mmHg 63%
    10:00 +37°C° 0.3 mm 3 m/s 743 mmHg 58%
    11:00 +38°C° 0.3 mm 2 m/s 743 mmHg 52%
    12:00 +40°C° 0.3 mm 2 m/s 743 mmHg 46%
    13:00 +40°C° 0 mm 2 m/s 742 mmHg 45%
    14:00 +40°C° 0 mm 1 m/s 742 mmHg 44%
    15:00 +41°C° 0 mm 1 m/s 741 mmHg 42%
    16:00 +40°C° 0 mm 1 m/s 741 mmHg 44%
    17:00 +40°C° 0 mm 1 m/s 741 mmHg 46%
    18:00 +40°C° 0 mm 1 m/s 740 mmHg 48%
    19:00 +39°C° 0 mm 1 m/s 740 mmHg 51%
    20:00 +37°C° 0 mm 1 m/s 741 mmHg 53%
    21:00 +37°C° 0 mm 2 m/s 741 mmHg 56%
    22:00 +36°C° 0 mm 2 m/s 741 mmHg 58%
    23:00 +36°C° 0 mm 2 m/s 741 mmHg 60%

    20 Iulie, Sâmbătă

    Timp Temperatura Precipitaţii Vânt Presiune Umiditate
    00:00 +35°C° 0 mm 2 m/s 741 mmHg 62%
    01:00 +35°C° 0 mm 2 m/s 741 mmHg 64%
    02:00 +35°C° 0 mm 2 m/s 741 mmHg 66%
    03:00 +34°C° 0 mm 2 m/s 741 mmHg 69%
    04:00 +34°C° 0.8 mm 2 m/s 741 mmHg 72%
    05:00 +32°C° 0.8 mm 1 m/s 741 mmHg 76%
    06:00 +31°C° 0.8 mm 1 m/s 741 mmHg 80%
    07:00 +33°C° 0.5 mm 1 m/s 742 mmHg 75%
    08:00 +35°C° 0.5 mm 2 m/s 742 mmHg 70%
    09:00 +36°C° 0.5 mm 2 m/s 742 mmHg 65%
    10:00 +37°C° 0.2 mm 1 m/s 742 mmHg 59%
    11:00 +39°C° 0.2 mm 1 m/s 742 mmHg 53%
    12:00 +37°C° 0.2 mm 0 m/s 742 mmHg 47%
    13:00 +41°C° 0 mm 1 m/s 741 mmHg 46%
    14:00 +41°C° 0 mm 1 m/s 741 mmHg 45%
    15:00 +41°C° 0 mm 1 m/s 740 mmHg 43%
    16:00 +41°C° 0 mm 1 m/s 740 mmHg 45%
    17:00 +40°C° 0 mm 1 m/s 740 mmHg 47%
    18:00 +40°C° 0 mm 1 m/s 739 mmHg 49%
    19:00 +39°C° 0.2 mm 1 m/s 739 mmHg 52%
    20:00 +37°C° 0.2 mm 1 m/s 740 mmHg 55%
    21:00 +36°C° 0.2 mm 1 m/s 740 mmHg 59%
    22:00 +35°C° 0 mm 1 m/s 740 mmHg 61%
    23:00 +36°C° 0 mm 2 m/s 740 mmHg 64%

    21 Iulie, Duminică

    Timp Temperatura Precipitaţii Vânt Presiune Umiditate
    00:00 +35°C° 0 mm 2 m/s 740 mmHg 66%
    01:00 +35°C° 0 mm 2 m/s 740 mmHg 68%
    02:00 +34°C° 0 mm 2 m/s 739 mmHg 71%
    03:00 +34°C° 0 mm 2 m/s 739 mmHg 73%
    04:00 +32°C° 0.9 mm 2 m/s 739 mmHg 76%
    05:00 +32°C° 0.9 mm 2 m/s 739 mmHg 80%
    06:00 +31°C° 0.9 mm 3 m/s 739 mmHg 84%
    07:00 +33°C° 0.9 mm 3 m/s 739 mmHg 81%
    08:00 +33°C° 0.9 mm 4 m/s 740 mmHg 79%
    09:00 +34°C° 0.9 mm 4 m/s 740 mmHg 77%
    10:00 +36°C° 0.4 mm 4 m/s 740 mmHg 70%
    11:00 +37°C° 0.4 mm 3 m/s 740 mmHg 63%
    12:00 +39°C° 0.4 mm 3 m/s 740 mmHg 56%
    13:00 +39°C° 0.6 mm 2 m/s 739 mmHg 54%
    14:00 +40°C° 0.6 mm 2 m/s 739 mmHg 52%
    15:00 +40°C° 0.6 mm 1 m/s 739 mmHg 50%
    16:00 +40°C° 0 mm 2 m/s 739 mmHg 53%
    17:00 +39°C° 0 mm 2 m/s 739 mmHg 57%
    18:00 +38°C° 0 mm 3 m/s 739 mmHg 61%
    19:00 +36°C° 1.4 mm 3 m/s 739 mmHg 66%
    20:00 +35°C° 1.5 mm 4 m/s 739 mmHg 71%
    21:00 +33°C° 1.5 mm 4 m/s 739 mmHg 77%
    22:00 +32°C° 3.4 mm 5 m/s 740 mmHg 81%
    23:00 +30°C° 3.4 mm 6 m/s 740 mmHg 85%
    Arată mai mult